{"data":{"norad_id":54650,"epoch":"2026-09-20T03:24:28.474272Z","epoch_age_seconds":52960,"freshness":"FRESH","line1":"1 54650U 22166J   26263.14199623  .00000106  00000+0  22599-3 0  9997","line2":"2 54650  87.9282 225.0958 0002158  81.6248 278.5130 13.21825356184076","mean_motion":13.21825356,"eccentricity":0.0002158,"inclination_deg":87.9282,"raan_deg":225.0958,"arg_perigee_deg":81.6248,"mean_anomaly_deg":278.513,"bstar":0.00022599,"rev_number":18407,"period_min":108.94026154541,"perigee_km":1176.1252608752,"apogee_km":1179.3863842174,"semimajor_km":7555.8928225463,"source":"CELESTRAK","updated_at":"2026-09-20T09:00:44.742331Z"}}